Weather History for Middletown, OH

Change the Weather History Date:

Thursday, January 17, 2013

  Actual Average (KDAY) Record (KDAY)
Temperature  
Mean Temperature 36 °F 27 °F  
Max Temperature 42 °F 35 °F 63 °F (1952)
Min Temperature 27 °F 20 °F -21 °F (1977)
Degree Days  
Heating Degree Days 30 38  
Month to date heating degree days 640  
Since 1 July heating degree days 2799  
Cooling Degree Days 0 0  
Month to date cooling degree days 0  
Year to date cooling degree days 0  
Moisture  
Dew Point 29 °F    
Average Humidity 82    
Maximum Humidity 96    
Minimum Humidity 63    
Precipitation  
Precipitation 0.00 in 0.09 in 1.17 in (1932)
Month to date precipitation 1.58  
Year to date precipitation 1.58  
Snow  
Snow 0.00 in 0.30 in 4.90 in (1978)
Month to date snowfall 4.3  
Since 1 July snowfall 9.8  
Snow Depth -    
Sea Level Pressure  
Sea Level Pressure 30.19 in    
Wind  
Wind Speed 4 mph (NW)    
Max Wind Speed 13 mph    
Max Gust Speed 20 mph    
Visibility 10 miles    
Events      
T = Trace of Precipitation, MM = Missing Value Source: NWS Daily Summary

Daily Weather History Graph

Daily Weather History Graph

Search for Another Location

Airport:

Trip Planner

Search our weather history database for the weather conditions in past years. The results will help you decide how hot, cold, wet, or windy it might be!

Date:

Astronomy

Jan. 17, 2013 Rise Set
Actual Time 7:55 AM EST 5:40 PM EST
Civil Twilight 7:25 AM EST 6:09 PM EST
Nautical Twilight 6:53 AM EST 6:42 PM EST
Astronomical Twilight 6:20 AM EST 7:15 PM EST
Moon 11:03 AM EST (1/17) No Moon Set
Length of Visible Light 10h 43m
Length of Day
9h 45m
Waxing Crescent, 37% of the Moon is Illuminated
Jan 17
Waxing Crescent
Jan 18
First Quarter
Jan 26
Full
Feb 3
Last Quarter
Feb 10
New

Hourly Weather History & Observations

Time (EST) Temp. Windchill Dew Point Humidity Pressure Visibility Wind Dir Wind Speed Gust Speed Precip Events Conditions
12:15 AM 32.5 °F 27.1 °F 30.7 °F 93% 30.10 in 10.0 mi SW 5.8 mph - N/A   Mostly Cloudy
12:35 AM 32.5 °F 27.1 °F 29.8 °F 90% 30.11 in 10.0 mi SW 5.8 mph - N/A   Overcast
12:55 AM 32.5 °F - 29.3 °F 88% 30.11 in 10.0 mi Calm Calm - N/A   Overcast
1:15 AM 32.5 °F 28.1 °F 28.9 °F 87% 30.12 in 10.0 mi SW 4.6 mph - N/A   Overcast
1:35 AM 32.5 °F 29.3 °F 28.9 °F 87% 30.11 in 10.0 mi SW 3.5 mph - N/A   Overcast
1:55 AM 32.5 °F 28.1 °F 28.6 °F 85% 30.13 in 10.0 mi WSW 4.6 mph - N/A   Mostly Cloudy
2:15 AM 32.5 °F - 28.4 °F 85% 30.13 in 10.0 mi Calm Calm - N/A   Scattered Clouds
2:35 AM 30.4 °F 26.9 °F 27.0 °F 87% 30.14 in 10.0 mi SW 3.5 mph - N/A   Clear
2:55 AM 32.5 °F 28.1 °F 28.6 °F 85% 30.14 in 10.0 mi South 4.6 mph - N/A   Clear
3:15 AM 32.5 °F 29.3 °F 29.3 °F 88% 30.14 in 10.0 mi SW 3.5 mph - N/A   Clear
3:35 AM 31.6 °F - 28.6 °F 88% 30.14 in 10.0 mi Calm Calm - N/A   Clear
3:55 AM 32.5 °F 29.3 °F 29.3 °F 88% 30.14 in 10.0 mi SW 3.5 mph - N/A   Clear
4:15 AM 30.2 °F 26.7 °F 27.5 °F 90% 30.14 in 10.0 mi WSW 3.5 mph - N/A   Clear
4:35 AM 31.5 °F - 28.0 °F 87% 30.15 in 10.0 mi Calm Calm - N/A   Clear
4:55 AM 32.5 °F 29.3 °F 29.1 °F 87% 30.15 in 10.0 mi SW 3.5 mph - N/A   Clear
5:15 AM 30.2 °F 25.4 °F 27.1 °F 88% 30.16 in 10.0 mi WSW 4.6 mph - N/A   Clear
5:35 AM 32.5 °F 29.3 °F 29.1 °F 87% 30.15 in 10.0 mi WSW 3.5 mph - N/A   Clear
5:55 AM 30.2 °F - 28.0 °F 92% 30.16 in 10.0 mi Calm Calm - N/A   Clear
6:15 AM 32.4 °F 29.1 °F 29.7 °F 90% 30.15 in 10.0 mi NW 3.5 mph - N/A   Clear
6:35 AM 30.2 °F - 26.6 °F 86% 30.16 in 10.0 mi Calm Calm - N/A   Clear
6:55 AM 32.5 °F 29.3 °F 28.9 °F 87% 30.16 in 10.0 mi NW 3.5 mph - N/A   Clear
7:15 AM 32.5 °F - 28.9 °F 87% 30.15 in 10.0 mi Calm Calm - N/A   Clear
7:35 AM 30.2 °F 26.7 °F 27.0 °F 88% 30.18 in 10.0 mi SSW 3.5 mph - N/A   Clear
7:55 AM 30.2 °F - 27.5 °F 90% 30.19 in 10.0 mi Calm Calm - N/A   Clear
8:15 AM 29.8 °F - 27.5 °F 91% 30.20 in 10.0 mi Calm Calm - N/A   Clear
8:35 AM 30.0 °F - 27.5 °F 90% 30.21 in 10.0 mi Calm Calm - N/A   Scattered Clouds
8:55 AM 29.5 °F - 27.3 °F 92% 30.23 in 10.0 mi Calm Calm - N/A   Scattered Clouds
9:15 AM 30.2 °F - 29.1 °F 96% 30.23 in 10.0 mi Calm Calm - N/A   Clear
9:35 AM 30.7 °F 27.3 °F 29.7 °F 96% 30.23 in 10.0 mi North 3.5 mph - N/A   Scattered Clouds
9:55 AM 32.5 °F - 31.1 °F 94% 30.23 in 10.0 mi Calm Calm - N/A   Mostly Cloudy
10:15 AM 32.5 °F 29.3 °F 30.2 °F 91% 30.23 in 10.0 mi North 3.5 mph - N/A   Scattered Clouds
10:35 AM 32.5 °F - 29.8 °F 90% 30.23 in 10.0 mi Calm Calm - N/A   Clear
10:55 AM 32.5 °F - 29.3 °F 88% 30.23 in 7.0 mi Calm Calm - N/A   Clear
11:15 AM 32.9 °F - 29.1 °F 86% 30.23 in 7.0 mi Calm Calm - N/A   Clear
11:35 AM 35.1 °F - 31.1 °F 85% 30.22 in - Calm Calm - N/A   Unknown
11:55 AM 35.1 °F - 30.9 °F 85% 30.20 in 7.0 mi Calm Calm - N/A   Clear
12:15 PM 37.6 °F - 32.2 °F 81% 30.19 in 10.0 mi Calm Calm - N/A   Clear
12:35 PM 37.6 °F - 32.0 °F 80% 30.17 in 10.0 mi Calm Calm - N/A   Clear
12:55 PM 40.1 °F 34.7 °F 32.0 °F 73% 30.16 in 10.0 mi NNW 8.1 mph - N/A   Clear
1:15 PM 40.8 °F 35.6 °F 31.3 °F 69% 30.15 in 10.0 mi North 8.1 mph 19.6 mph N/A   Clear
1:35 PM 41.0 °F 34.3 °F 31.1 °F 68% 30.14 in 10.0 mi North 11.5 mph 16.1 mph N/A   Clear
1:55 PM 41.2 °F 36.0 °F 31.6 °F 69% 30.14 in 10.0 mi North 8.1 mph - N/A   Clear
2:15 PM 40.6 °F 34.8 °F 31.5 °F 70% 30.14 in 10.0 mi North 9.2 mph - N/A   Clear
2:35 PM 41.4 °F 35.2 °F 30.7 °F 66% 30.14 in 10.0 mi North 10.4 mph - N/A   Scattered Clouds
2:55 PM 42.4 °F 37.0 °F 31.3 °F 65% 30.15 in 10.0 mi North 9.2 mph - N/A   Mostly Cloudy
3:15 PM 41.5 °F 35.4 °F 29.7 °F 63% 30.16 in 10.0 mi North 10.4 mph - N/A   Scattered Clouds
3:35 PM 41.5 °F 35.9 °F 29.7 °F 63% 30.16 in 10.0 mi North 9.2 mph - N/A   Clear
3:55 PM 40.8 °F 33.7 °F 29.3 °F 64% 30.16 in 10.0 mi North 12.7 mph 17.3 mph N/A   Clear
4:15 PM 40.1 °F 33.6 °F 30.2 °F 68% - 10.0 mi North 10.4 mph - N/A   Clear
4:35 PM 40.1 °F 33.2 °F 29.8 °F 67% 30.17 in 10.0 mi North 11.5 mph 17.3 mph N/A   Clear
4:55 PM 38.8 °F 31.6 °F 28.9 °F 68% 30.18 in 10.0 mi North 11.5 mph 17.3 mph N/A   Clear
5:55 PM 37.6 °F - 29.7 °F 73% 30.24 in 10.0 mi Calm Calm - N/A   Clear
6:35 PM 32.5 °F 26.2 °F 29.1 °F 87% 30.27 in 10.0 mi NNW 6.9 mph - N/A   Scattered Clouds
8:55 PM 32.5 °F 24.8 °F 24.6 °F 73% 30.32 in 10.0 mi NNW 9.2 mph - N/A   Clear
9:15 PM 32.5 °F 24.2 °F 24.3 °F 72% 30.34 in 10.0 mi NW 10.4 mph 17.3 mph N/A   Clear
9:55 PM 30.6 °F 22.4 °F 23.4 °F 75% 30.36 in 10.0 mi NW 9.2 mph - N/A   Clear
10:15 PM 30.2 °F 22.6 °F 23.7 °F 77% 30.36 in 10.0 mi NW 8.1 mph - N/A   Clear
10:35 PM 29.1 °F 20.6 °F 22.8 °F 77% 30.37 in 10.0 mi NNW 9.2 mph - N/A   Clear
10:55 PM 27.9 °F 19.1 °F 20.8 °F 75% 30.38 in 10.0 mi NNW 9.2 mph - N/A   Clear